Regional Weather Roundup
Issued by NWS Cleveland, OH

Home | Current Version | Previous Version | Graphics & Text | Print | Product List | Glossary On
Versions: 1 2 3 4 5 6 7 8 9 10 11 12 13 14 15 16 17 18 19 20 21 22 23 24 25 26 27 28 29 30 31 32 33 34 35 36 37 38 39 40 41 42 43 44 45 46 47 48 49 50
000
ASUS41 KCLE 260602
RWRCLE
OHIO REGIONAL WEATHER ROUNDUP
NATIONAL WEATHER SERVICE CLEVELAND, OH
200 AM EDT SUN APR 26 2015

NOTE: "FAIR" INDICATES FEW OR NO CLOUDS BELOW 12,000 FEET WITH NO
SIGNIFICANT WEATHER AND/OR OBSTRUCTIONS TO VISIBILITY.

OHZ001>008-015>018-024>027-034-035-043-044-260700-
   NORTHWEST OHIO

CITY           SKY/WX    TMP DP  RH WIND       PRES   REMARKS
DEFIANCE       PTCLDY    40  30  67 N6        29.82S
FINDLAY        MOCLDY    42  33  70 NE10      29.79R
TOLEDO EXPRESS PTCLDY    42  26  53 N10       29.81R
TOLEDO EXEC    PTCLDY    43  28  55 NE13G18   29.82R
LIMA           CLOUDY    40  31  70 NE13      29.77S
$$

OHZ009>014-019>023-028>033-038-089-260700-
   NORTHEAST OHIO

CITY           SKY/WX    TMP DP  RH WIND       PRES   REMARKS
CLE-HOPKINS    PTCLDY    41  32  70 N13       29.79S
CLE-LAKEFRONT  PTCLDY    43  31  62 NE9       29.77R
CUY CO. ARPT   NOT AVBL
LORAIN-ELYRIA  MOCLDY    41  30  65 NE12      29.77F
ASHTABULA      PTCLDY    36  29  75 NE3       29.77S
AKRON-CANTON   CLOUDY    43  26  51 NE16      29.72S
WOOSTER        MOCLDY    41  24  51 N8        29.73F
MANSFIELD      CLOUDY    39  30  70 N10       29.74R
YOUNGSTOWN     CLOUDY    42  26  53 NE12      29.72S
$$

OHZ042-051>053-060>062-070>072-077>081-260700-
  SOUTHWEST OHIO

CITY           SKY/WX    TMP DP  RH WIND       PRES   REMARKS
CINC-COVINGTON CLOUDY    45  41  86 NE16      29.70R
CINC-LUNKEN    CLOUDY    45  42  89 NE10      29.71R
HAMILTON       CLOUDY    46  39  76 N9        29.73R
DAYTON         CLOUDY    41  31  67 N15       29.75R
WRIGHT-PAT AFB CLOUDY    42  30  61 N10       29.73R
DAYTON GENERAL CLOUDY    43  36  76 N10       29.71R
WILMINGTON     CLOUDY    42  38  85 NE12      29.69R
$$

OHZ036-037-039>041-045>050-054>059-063>069-073>076-082>088-260700-
  CENTRAL AND SOUTHEAST OHIO

CITY           SKY/WX    TMP DP  RH WIND       PRES   REMARKS
COLUMBUS       CLOUDY    42  32  67 N12       29.71S
OSU AIRPORT    CLOUDY    40  32  73 N9        29.73R
BOLTON FIELD   NOT AVBL
RICKENBACK AFB NOT AVBL
NEWARK         CLOUDY    43  32  65 N7        29.70S
MARION         MOCLDY    39  32  76 N14       29.75S
LANCASTER      CLOUDY    44  38  79 N6        29.70S
ZANESVILLE     CLOUDY    42  36  79 N5        29.69S
NEW PHILLY     CLOUDY    45  27  49 N6        29.71S
$$


USA.gov is the U.S. government's official web portal to all federal, state and local government web resources and services.